| time (UTC) | temp F | wind direction | speed MPH | gust MPH | rain 1hr in | rain 24hr in | rain mn in | humidity % | barometer mb |
| 20260906101524 | 70 | 174 | 0.0 | 2.0 | 0.00 | 0.00 | 0.00 | 1 | 1016.8 |
| 20260906100024 | 70 | 173 | 0.0 | 1.0 | 0.00 | 0.00 | 0.00 | 1 | 1016.7 |
| 20260906094513 | 70 | 193 | 0.0 | 2.0 | 0.00 | 0.00 | 0.00 | 9 | 1016.5 |
| 20260906093010 | 70 | 213 | 0.0 | 3.0 | 0.00 | 0.00 | 0.00 | 9 | 1016.5 |
| 20260906091504 | 70 | 186 | 0.0 | 1.0 | 0.00 | 0.00 | 0.00 | 1 | 1016.2 |
| 20260906084556 | 70 | 166 | 0.0 | 2.0 | 0.00 | 0.00 | 0.00 | 1 | 1016.4 |
| 20260906083054 | 70 | 167 | 0.0 | 3.0 | 0.00 | 0.00 | 0.00 | 1 | 1016.3 |
| 20260906081547 | 70 | 166 | 0.0 | 2.0 | 0.00 | 0.00 | 0.00 | 1 | 1016.4 |
| 20260906080046 | 70 | 173 | 0.0 | 2.0 | 0.00 | 0.00 | 0.00 | 1 | 1016.3 |
| 20260906074539 | 69 | 175 | 0.0 | 0.0 | 0.00 | 0.00 | 0.00 | 1 | 1016.3 |
| 20260906073034 | 69 | 176 | 0.0 | 0.0 | 0.00 | 0.00 | 0.00 | 1 | 1016.3 |
| 20260906071531 | 70 | 173 | 0.0 | 0.0 | 0.00 | 0.00 | 0.00 | 10 | 1016.1 |
| 20260906070028 | 71 | 173 | 0.0 | 0.0 | 0.00 | 0.00 | 0.00 | 22 | 1016.2 |
| 20260906064527 | 71 | 170 | 0.0 | 1.0 | 0.00 | 0.00 | 0.00 | 15 | 1016.1 |
| 20260906063026 | 71 | 173 | 0.0 | 1.0 | 0.00 | 0.00 | 0.00 | 24 | 1016.2 |
| 20260906061525 | 71 | 170 | 0.0 | 1.0 | 0.00 | 0.00 | 0.00 | 25 | 1016.2 |
| 20260906060027 | 72 | 170 | 0.0 | 2.0 | 0.00 | 0.00 | 0.00 | 25 | 1016.1 |
| 20260906054536 | 72 | 171 | 0.0 | 1.0 | 0.00 | 0.00 | 0.00 | 33 | 1015.8 |
| 20260906053017 | 72 | 169 | 0.0 | 3.0 | 0.00 | 0.00 | 0.00 | 36 | 1015.7 |
| 20260906051514 | 72 | 176 | 0.0 | 4.0 | 0.00 | 0.00 | 0.00 | 45 | 1015.5 |
| 20260906050012 | 73 | 160 | 1.0 | 5.0 | 0.00 | 0.00 | 0.00 | 47 | 1015.5 |
| 20260906044507 | 73 | 145 | 2.0 | 5.0 | 0.00 | 0.00 | 0.00 | 34 | 1015.4 |
| 20260906043013 | 73 | 146 | 1.0 | 4.0 | 0.00 | 0.00 | 0.00 | 24 | 1015.3 |
| 20260906041559 | 73 | 135 | 3.0 | 6.0 | 0.00 | 0.00 | 0.00 | 24 | 1015.2 |
| 20260906040133 | 73 | 150 | 2.0 | 5.0 | 0.00 | 0.00 | 0.00 | 47 | 1015.3 |
| 20260906034602 | 74 | 147 | 2.0 | 6.0 | 0.00 | 0.00 | 0.00 | 58 | 1015.2 |
| 20260906033102 | 74 | 143 | 3.0 | 5.0 | 0.00 | 0.00 | 0.00 | 53 | 1015.2 |
| 20260906031542 | 74 | 142 | 1.0 | 4.0 | 0.00 | 0.00 | 0.00 | 45 | 1015.1 |
| 20260906030037 | 74 | 139 | 0.0 | 4.0 | 0.00 | 0.00 | 0.00 | 51 | 1014.9 |
| 20260906024532 | 74 | 145 | 0.0 | 5.0 | 0.00 | 0.00 | 0.00 | 50 | 1015.0 |
| 20260906023028 | 74 | 152 | 0.0 | 5.0 | 0.00 | 0.00 | 0.00 | 42 | 1015.0 |
| 20260906021524 | 74 | 145 | 0.0 | 3.0 | 0.00 | 0.00 | 0.00 | 21 | 1015.1 |
| 20260906020019 | 73 | 146 | 0.0 | 5.0 | 0.00 | 0.00 | 0.00 | 14 | 1014.9 |
| 20260906014515 | 73 | 154 | 0.0 | 6.0 | 0.00 | 0.00 | 0.00 | 1 | 1014.6 |
| 20260906013011 | 73 | 145 | 2.0 | 7.0 | 0.00 | 0.00 | 0.00 | 6 | 1014.3 |
| 20260906011514 | 73 | 129 | 3.0 | 7.0 | 0.00 | 0.00 | 0.00 | 5 | 1014.2 |
| 20260906010002 | 73 | 126 | 0.0 | 6.0 | 0.00 | 0.00 | 0.00 | 21 | 1014.0 |
| 20260906004558 | 72 | 107 | 1.0 | 5.0 | 0.00 | 0.00 | 0.00 | 30 | 1014.0 |
| 20260906003054 | 73 | 121 | 0.0 | 6.0 | 0.00 | 0.00 | 0.00 | 31 | 1014.0 |
| 20260906001548 | 73 | 116 | 2.0 | 5.0 | 0.00 | 0.00 | 0.00 | 33 | 1014.0 |
| 20260906000044 | 73 | 26 | 0.0 | 3.0 | 0.00 | 0.00 | 0.00 | 45 | 1014.0 |
| 20260905234540 | 73 | 130 | 0.0 | 4.0 | 0.00 | 0.00 | 0.00 | 34 | 1013.9 |
| 20260905233035 | 73 | 119 | 1.0 | 6.0 | 0.00 | 0.00 | 0.00 | 47 | 1013.9 |
| 20260905231531 | 74 | 125 | 1.0 | 8.0 | 0.00 | 0.00 | 0.00 | 36 | 1014.0 |
| 20260905230026 | 74 | 125 | 1.0 | 5.0 | 0.00 | 0.00 | 0.00 | 44 | 1013.9 |
| 20260905224553 | 74 | 90 | 0.0 | 6.0 | 0.00 | 0.00 | 0.00 | 47 | 1013.8 |
| 20260905223021 | 74 | 86 | 0.0 | 3.0 | 0.00 | 0.00 | 0.00 | 48 | 1013.8 |
| 20260905221512 | 75 | 93 | 0.0 | 9.0 | 0.00 | 0.00 | 0.00 | 53 | 1013.7 |
| 20260905220008 | 75 | 131 | 0.0 | 7.0 | 0.00 | 0.00 | 0.00 | 55 | 1013.6 |
| 20260905214504 | 75 | 118 | 1.0 | 7.0 | 0.00 | 0.00 | 0.00 | 47 | 1013.5 |
| 20260905213104 | 75 | 135 | 2.0 | 10.0 | 0.00 | 0.00 | 0.00 | 45 | 1013.4 |
| 20260905211557 | 75 | 152 | 3.0 | 9.0 | 0.00 | 0.00 | 0.00 | 48 | 1013.3 |
| 20260905210100 | 75 | 152 | 2.0 | 9.0 | 0.00 | 0.00 | 0.00 | 58 | 1013.4 |
| 20260905204546 | 75 | 121 | 6.0 | 10.0 | 0.00 | 0.00 | 0.00 | 54 | 1013.3 |
| 20260905203045 | 76 | 136 | 2.0 | 7.0 | 0.00 | 0.00 | 0.00 | 54 | 1013.4 |
| 20260905201538 | 75 | 94 | 1.0 | 10.0 | 0.00 | 0.00 | 0.00 | 61 | 1013.5 |
| 20260905200034 | 75 | 142 | 1.0 | 7.0 | 0.00 | 0.00 | 0.00 | 54 | 1013.5 |
| 20260905194528 | 75 | 138 | 0.0 | 9.0 | 0.00 | 0.00 | 0.00 | 56 | 1013.5 |
| 20260905193024 | 76 | 342 | 3.0 | 9.0 | 0.00 | 0.00 | 0.00 | 64 | 1013.5 |
| 20260905191520 | 77 | 55 | 2.0 | 6.0 | 0.00 | 0.00 | 0.00 | 65 | 1013.6 |
| 20260905190015 | 77 | 83 | 0.0 | 4.0 | 0.00 | 0.00 | 0.00 | 52 | 1013.5 |
| 20260905184524 | 77 | 90 | 4.0 | 9.0 | 0.00 | 0.00 | 0.00 | 66 | 1013.4 |
| 20260905183006 | 78 | 97 | 0.0 | 4.0 | 0.00 | 0.00 | 0.00 | 72 | 1013.4 |
| 20260905181503 | 79 | 109 | 0.0 | 4.0 | 0.00 | 0.00 | 0.00 | 71 | 1013.4 |
| 20260905180105 | 79 | 87 | 0.0 | 5.0 | 0.00 | 0.00 | 0.00 | 66 | 1013.4 |
| 20260905174553 | 79 | 73 | 1.0 | 7.0 | 0.00 | 0.00 | 0.00 | 75 | 1013.3 |
| 20260905173105 | 80 | 76 | 0.0 | 7.0 | 0.00 | 0.00 | 0.00 | 76 | 1013.2 |
| 20260905171546 | 80 | 77 | 4.0 | 7.0 | 0.00 | 0.00 | 0.00 | 75 | 1013.3 |
| 20260905170044 | 80 | 83 | 0.0 | 6.0 | 0.00 | 0.00 | 0.00 | 76 | 1013.3 |
| 20260905164535 | 80 | 80 | 2.0 | 8.0 | 0.00 | 0.00 | 0.00 | 74 | 1013.5 |
| 20260905163031 | 81 | 127 | 0.0 | 3.0 | 0.00 | 0.00 | 0.00 | 73 | 1013.5 |
| 20260905161526 | 81 | 101 | 0.0 | 3.0 | 0.00 | 0.00 | 0.00 | 70 | 1013.5 |
| 20260905160021 | 81 | 102 | 0.0 | 4.0 | 0.00 | 0.00 | 0.00 | 71 | 1013.4 |
| 20260905154517 | 80 | 86 | 0.0 | 6.0 | 0.00 | 0.00 | 0.00 | 63 | 1013.2 |
| 20260905153018 | 79 | 112 | 0.0 | 5.0 | 0.00 | 0.00 | 0.00 | 32 | 1013.2 |
| 20260905151518 | 78 | 93 | 1.0 | 6.0 | 0.00 | 0.00 | 0.00 | 33 | 1013.2 |
| 20260905150004 | 78 | 97 | 2.0 | 6.0 | 0.00 | 0.00 | 0.00 | 19 | 1013.1 |
| 20260905144600 | 77 | 111 | 0.0 | 4.0 | 0.00 | 0.00 | 0.00 | 1 | 1013.0 |
| 20260905143058 | 77 | 100 | 2.0 | 5.0 | 0.00 | 0.00 | 0.00 | 1 | 1012.8 |
| 20260905141551 | 77 | 94 | 1.0 | 6.0 | 0.00 | 0.00 | 0.00 | 1 | 1013.0 |
| 20260905140045 | 79 | 111 | 0.0 | 1.0 | 0.00 | 0.00 | 0.00 | 13 | 1013.2 |
| 20260905134542 | 79 | 129 | 0.0 | 3.0 | 0.00 | 0.00 | 0.00 | 1 | 1012.8 |
| 20260905133040 | 78 | 104 | 0.0 | 4.0 | 0.00 | 0.00 | 0.00 | 1 | 1012.8 |
| 20260905131533 | 79 | 126 | 0.0 | 0.0 | 0.00 | 0.00 | 0.00 | 1 | 1012.6 |
| 20260905130029 | 77 | 128 | 0.0 | 1.0 | 0.00 | 0.00 | 0.00 | 1 | 1012.4 |
| 20260905124524 | 76 | 136 | 0.0 | 2.0 | 0.00 | 0.00 | 0.00 | 1 | 1012.3 |
| 20260905123019 | 76 | 129 | 0.0 | 1.0 | 0.00 | 0.00 | 0.00 | 1 | 1012.2 |
| 20260905121515 | 76 | 129 | 0.0 | 1.0 | 0.00 | 0.00 | 0.00 | 1 | 1012.1 |
| 20260905120011 | 76 | 129 | 0.0 | 1.0 | 0.00 | 0.00 | 0.00 | 1 | 1011.9 |
| 20260905114507 | 76 | 116 | 0.0 | 1.0 | 0.00 | 0.00 | 0.00 | 1 | 1011.9 |
| 20260905113002 | 75 | 128 | 0.0 | 0.0 | 0.00 | 0.00 | 0.00 | 1 | 1011.7 |
| 20260905111558 | 76 | 128 | 0.0 | 0.0 | 0.00 | 0.00 | 0.00 | 1 | 1011.5 |
| 20260905110054 | 76 | 128 | 0.0 | 1.0 | 0.00 | 0.00 | 0.00 | 1 | 1011.4 |
| 20260905104551 | 76 | 126 | 0.0 | 0.0 | 0.00 | 0.00 | 0.00 | 1 | 1011.4 |
| 20260905103045 | 76 | 126 | 0.0 | 1.0 | 0.00 | 0.00 | 0.00 | 1 | 1011.4 |